This is the latest recevied weather packets stored in our database for station/object KR8N. If no packets are shown the sender has not sent any weather packets the latest 10 day(s).
| Time | Temp. | Humidity | Pressure | Rain* | Wind** | Luminosity | Snow |
|---|---|---|---|---|---|---|---|
| 1777903873 | 13.89° C | 52% | 1018.2 hPa | 0 mm | - | 214 W/m² | - |
| 1777903569 | 13.89° C | 54% | 1018.2 hPa | 0 mm | - | 226 W/m² | - |
| 1777903265 | 13.89° C | 52% | 1018.4 hPa | 0 mm | - | 264 W/m² | - |
| 1777902962 | 13.89° C | 54% | 1018.3 hPa | 0 mm | - | 293 W/m² | - |
| 1777902659 | 13.33° C | 56% | 1018.5 hPa | 0 mm | - | 341 W/m² | - |
| 1777902356 | 13.33° C | 55% | 1018.6 hPa | 0 mm | - | 317 W/m² | - |
| 1777902053 | 12.78° C | 55% | 1018.5 hPa | 0 mm | - | 285 W/m² | - |
| 1777901752 | 12.78° C | 57% | 1018.7 hPa | 0 mm | - | 280 W/m² | - |
| 1777901448 | 12.22° C | 58% | 1018.5 hPa | 0 mm | - | 267 W/m² | - |
| 1777901146 | 12.22° C | 57% | 1018.8 hPa | 0 mm | - | 176 W/m² | - |
| 1777900844 | 11.67° C | 58% | 1018.6 hPa | 0 mm | - | 120 W/m² | - |
| 1777900540 | 11.67° C | 58% | 1018.4 hPa | 0 mm | - | 142 W/m² | - |
| 1777900237 | 11.67° C | 57% | 1018.6 hPa | 0 mm | - | 100 W/m² | - |
| 1777899934 | 11.67° C | 58% | 1018.4 hPa | 0 mm | - | 125 W/m² | - |
| 1777899631 | 11.67° C | 57% | 1018.5 hPa | 0 mm | - | 184 W/m² | - |
| 1777899328 | 11.11° C | 58% | 1018.4 hPa | 0 mm | - | 165 W/m² | - |
| 1777899026 | 11.11° C | 57% | 1018.3 hPa | 0 mm | - | 179 W/m² | - |
| 1777898722 | 11.11° C | 58% | 1018.3 hPa | 0 mm | - | 164 W/m² | - |
| 1777898420 | 10.56° C | 59% | 1018.3 hPa | 0 mm | - | 211 W/m² | - |
| 1777898118 | 10.56° C | 60% | 1018.3 hPa | 0 mm | - | 210 W/m² | - |
| 1777897815 | 10° C | 60% | 1017.9 hPa | 0 mm | - | 137 W/m² | - |
| 1777897510 | 10° C | 60% | 1017.8 hPa | 0 mm | - | 128 W/m² | - |
| 1777897206 | 10.56° C | 59% | 1017.7 hPa | 0 mm | - | 124 W/m² | - |
| 1777896903 | 10.56° C | 62% | 1017.7 hPa | 0 mm | - | 129 W/m² | - |
| 1777896600 | 10.56° C | 60% | 1017.5 hPa | 0 mm | - | 131 W/m² | - |
* Rain latest hour (hover to see other rain measurements)
** Current wind speed in m/s (hover to see current wind gust speed)